| time (UTC) | temp F | wind direction | speed MPH | gust MPH | rain 1hr in | rain 24hr in | rain mn in | humidity % | barometer mb |
| 20260906132004 | 79 | 166 | 1.0 | 3.0 | 0.00 | 0.00 | 0.00 | 89 | 1013.3 |
| 20260906131504 | 79 | 163 | 1.0 | 2.0 | 0.00 | 0.00 | 0.00 | 89 | 1013.3 |
| 20260906131005 | 79 | 163 | 0.0 | 2.0 | 0.00 | 0.00 | 0.00 | 89 | 1013.3 |
| 20260906130504 | 79 | 163 | 0.0 | 2.0 | 0.00 | 0.00 | 0.00 | 90 | 1013.3 |
| 20260906130025 | 79 | 0 | 0.0 | 0.0 | 0.00 | 0.00 | 0.00 | 91 | 1013.2 |
| 20260906125504 | 78 | 0 | 0.0 | 0.0 | 0.00 | 0.00 | 0.00 | 91 | 1013.2 |
| 20260906125004 | 78 | 0 | 0.0 | 0.0 | 0.00 | 0.00 | 0.00 | 91 | 1013.1 |
| 20260906124504 | 78 | 0 | 0.0 | 0.0 | 0.00 | 0.00 | 0.00 | 91 | 1013.0 |
| 20260906124025 | 78 | 0 | 0.0 | 0.0 | 0.00 | 0.00 | 0.00 | 91 | 1012.8 |
| 20260906123505 | 78 | 0 | 0.0 | 0.0 | 0.00 | 0.00 | 0.00 | 90 | 1012.8 |
| 20260906123005 | 78 | 0 | 0.0 | 0.0 | 0.00 | 0.00 | 0.00 | 90 | 1012.8 |
| 20260906122504 | 78 | 0 | 0.0 | 0.0 | 0.00 | 0.00 | 0.00 | 90 | 1012.7 |
| 20260906122005 | 78 | 0 | 0.0 | 0.0 | 0.00 | 0.00 | 0.00 | 90 | 1012.7 |
| 20260906121504 | 78 | 0 | 0.0 | 0.0 | 0.00 | 0.00 | 0.00 | 90 | 1012.7 |
| 20260906121005 | 78 | 0 | 0.0 | 0.0 | 0.00 | 0.00 | 0.00 | 90 | 1012.6 |
| 20260906120505 | 78 | 0 | 0.0 | 0.0 | 0.00 | 0.00 | 0.00 | 90 | 1012.6 |
| 20260906120005 | 78 | 0 | 0.0 | 0.0 | 0.00 | 0.00 | 0.00 | 90 | 1012.6 |
| 20260906115505 | 78 | 0 | 0.0 | 0.0 | 0.00 | 0.00 | 0.00 | 90 | 1012.6 |
| 20260906115004 | 78 | 163 | 0.0 | 2.0 | 0.00 | 0.00 | 0.00 | 90 | 1012.4 |
| 20260906114504 | 78 | 163 | 1.0 | 4.0 | 0.00 | 0.00 | 0.00 | 90 | 1012.4 |
| 20260906114005 | 78 | 163 | 1.0 | 4.0 | 0.00 | 0.00 | 0.00 | 90 | 1012.3 |
| 20260906113505 | 78 | 170 | 1.0 | 5.0 | 0.00 | 0.00 | 0.00 | 90 | 1012.2 |
| 20260906113004 | 78 | 178 | 1.0 | 5.0 | 0.00 | 0.00 | 0.00 | 90 | 1012.3 |
| 20260906112505 | 78 | 167 | 1.0 | 3.0 | 0.00 | 0.00 | 0.00 | 90 | 1012.2 |
| 20260906112005 | 78 | 152 | 1.0 | 3.0 | 0.00 | 0.00 | 0.00 | 90 | 1012.1 |
| 20260906111504 | 78 | 157 | 1.0 | 4.0 | 0.00 | 0.00 | 0.00 | 90 | 1012.0 |
| 20260906111027 | 78 | 167 | 2.0 | 4.0 | 0.00 | 0.00 | 0.00 | 90 | 1012.2 |
| 20260906110504 | 78 | 167 | 1.0 | 4.0 | 0.00 | 0.00 | 0.00 | 89 | 1012.1 |
| 20260906110004 | 78 | 161 | 0.0 | 3.0 | 0.00 | 0.00 | 0.00 | 89 | 1011.9 |
| 20260906105504 | 78 | 103 | 0.0 | 1.0 | 0.00 | 0.00 | 0.00 | 89 | 1011.7 |
| 20260906105004 | 78 | 107 | 0.0 | 2.0 | 0.00 | 0.00 | 0.00 | 89 | 1011.5 |
| 20260906104504 | 78 | 107 | 0.0 | 2.0 | 0.00 | 0.00 | 0.00 | 89 | 1011.4 |
| 20260906104025 | 78 | 194 | 0.0 | 1.0 | 0.00 | 0.00 | 0.00 | 89 | 1011.4 |
| 20260906103504 | 78 | 0 | 0.0 | 0.0 | 0.00 | 0.00 | 0.00 | 89 | 1011.4 |
| 20260906103026 | 78 | 0 | 0.0 | 0.0 | 0.00 | 0.00 | 0.00 | 89 | 1011.4 |
| 20260906102505 | 78 | 0 | 0.0 | 0.0 | 0.00 | 0.00 | 0.00 | 89 | 1011.4 |
| 20260906102005 | 78 | 0 | 0.0 | 0.0 | 0.00 | 0.00 | 0.00 | 88 | 1011.4 |
| 20260906101504 | 78 | 0 | 0.0 | 0.0 | 0.00 | 0.00 | 0.00 | 88 | 1011.4 |
| 20260906101004 | 78 | 0 | 0.0 | 0.0 | 0.00 | 0.00 | 0.00 | 88 | 1011.3 |
| 20260906100504 | 78 | 0 | 0.0 | 0.0 | 0.00 | 0.00 | 0.00 | 88 | 1011.2 |
| 20260906100026 | 78 | 0 | 0.0 | 0.0 | 0.00 | 0.00 | 0.00 | 87 | 1011.2 |
| 20260906095505 | 78 | 0 | 0.0 | 0.0 | 0.00 | 0.00 | 0.00 | 87 | 1011.2 |
| 20260906095004 | 78 | 0 | 0.0 | 0.0 | 0.00 | 0.00 | 0.00 | 88 | 1011.3 |
| 20260906094527 | 78 | 0 | 0.0 | 0.0 | 0.00 | 0.00 | 0.00 | 88 | 1011.3 |
| 20260906094005 | 78 | 0 | 0.0 | 0.0 | 0.00 | 0.00 | 0.00 | 87 | 1011.2 |
| 20260906093504 | 78 | 0 | 0.0 | 0.0 | 0.00 | 0.00 | 0.00 | 87 | 1011.2 |
| 20260906093004 | 78 | 0 | 0.0 | 0.0 | 0.00 | 0.00 | 0.00 | 87 | 1011.2 |
| 20260906092525 | 78 | 0 | 0.0 | 0.0 | 0.00 | 0.00 | 0.00 | 87 | 1011.2 |
| 20260906092025 | 78 | 0 | 0.0 | 0.0 | 0.00 | 0.00 | 0.00 | 87 | 1011.1 |
| 20260906091504 | 78 | 0 | 0.0 | 0.0 | 0.00 | 0.00 | 0.00 | 87 | 1011.1 |
| 20260906091006 | 78 | 208 | 0.0 | 1.0 | 0.00 | 0.00 | 0.00 | 87 | 1011.3 |
| 20260906090504 | 78 | 208 | 0.0 | 1.0 | 0.00 | 0.00 | 0.00 | 88 | 1011.2 |
| 20260906090004 | 78 | 208 | 1.0 | 1.0 | 0.00 | 0.00 | 0.00 | 87 | 1011.3 |
| 20260906085505 | 78 | 208 | 1.0 | 1.0 | 0.00 | 0.00 | 0.00 | 87 | 1011.3 |
| 20260906085004 | 78 | 208 | 0.0 | 1.0 | 0.00 | 0.00 | 0.00 | 86 | 1011.3 |
| 20260906084505 | 78 | 0 | 0.0 | 0.0 | 0.00 | 0.00 | 0.00 | 86 | 1011.5 |
| 20260906084025 | 78 | 0 | 0.0 | 0.0 | 0.00 | 0.00 | 0.00 | 86 | 1011.4 |
| 20260906083504 | 79 | 0 | 0.0 | 0.0 | 0.00 | 0.00 | 0.00 | 86 | 1011.4 |
| 20260906083004 | 79 | 0 | 0.0 | 0.0 | 0.00 | 0.00 | 0.00 | 86 | 1011.5 |
| 20260906082505 | 79 | 0 | 0.0 | 0.0 | 0.00 | 0.00 | 0.00 | 86 | 1011.5 |
| 20260906082005 | 79 | 0 | 0.0 | 0.0 | 0.00 | 0.00 | 0.00 | 86 | 1011.6 |
| 20260906081504 | 79 | 0 | 0.0 | 0.0 | 0.00 | 0.00 | 0.00 | 86 | 1011.8 |
| 20260906081004 | 79 | 208 | 0.0 | 1.0 | 0.00 | 0.00 | 0.00 | 86 | 1011.8 |
| 20260906080504 | 79 | 208 | 0.0 | 2.0 | 0.00 | 0.00 | 0.00 | 86 | 1011.6 |
| 20260906080005 | 79 | 208 | 0.0 | 2.0 | 0.00 | 0.00 | 0.00 | 86 | 1011.8 |
| 20260906075525 | 80 | 208 | 0.0 | 1.0 | 0.00 | 0.00 | 0.00 | 85 | 1011.9 |
| 20260906075005 | 80 | 0 | 0.0 | 0.0 | 0.00 | 0.00 | 0.00 | 85 | 1011.8 |
| 20260906074506 | 80 | 208 | 0.0 | 1.0 | 0.00 | 0.00 | 0.00 | 85 | 1011.9 |
| 20260906074004 | 80 | 208 | 0.0 | 2.0 | 0.00 | 0.00 | 0.00 | 85 | 1011.8 |
| 20260906073504 | 80 | 208 | 0.0 | 3.0 | 0.00 | 0.00 | 0.00 | 85 | 1011.9 |
| 20260906073026 | 80 | 208 | 0.0 | 3.0 | 0.00 | 0.00 | 0.00 | 85 | 1012.2 |
| 20260906072525 | 80 | 208 | 0.0 | 2.0 | 0.00 | 0.00 | 0.00 | 84 | 1012.3 |
| 20260906072026 | 80 | 208 | 0.0 | 2.0 | 0.00 | 0.00 | 0.00 | 84 | 1012.5 |
| 20260906071504 | 80 | 208 | 1.0 | 2.0 | 0.00 | 0.00 | 0.00 | 84 | 1012.6 |
| 20260906071004 | 80 | 202 | 1.0 | 3.0 | 0.00 | 0.00 | 0.00 | 84 | 1012.6 |
| 20260906070504 | 81 | 196 | 2.0 | 4.0 | 0.00 | 0.00 | 0.00 | 83 | 1012.6 |
| 20260906070004 | 81 | 196 | 2.0 | 4.0 | 0.00 | 0.00 | 0.00 | 83 | 1012.7 |
| 20260906065504 | 81 | 197 | 3.0 | 5.0 | 0.00 | 0.00 | 0.00 | 83 | 1012.7 |
| 20260906065004 | 81 | 197 | 3.0 | 5.0 | 0.00 | 0.00 | 0.00 | 83 | 1012.7 |
| 20260906064504 | 81 | 195 | 3.0 | 6.0 | 0.00 | 0.00 | 0.00 | 83 | 1012.8 |
| 20260906064005 | 81 | 192 | 3.0 | 7.0 | 0.00 | 0.00 | 0.00 | 82 | 1012.6 |
| 20260906063504 | 81 | 188 | 3.0 | 7.0 | 0.00 | 0.00 | 0.00 | 82 | 1012.7 |
| 20260906063004 | 81 | 183 | 2.0 | 5.0 | 0.00 | 0.00 | 0.00 | 82 | 1012.8 |
| 20260906062504 | 82 | 186 | 3.0 | 6.0 | 0.00 | 0.00 | 0.00 | 81 | 1012.8 |
| 20260906062004 | 82 | 187 | 4.0 | 7.0 | 0.00 | 0.00 | 0.00 | 81 | 1012.9 |
| 20260906061504 | 82 | 184 | 4.0 | 7.0 | 0.00 | 0.00 | 0.00 | 81 | 1012.9 |
| 20260906061004 | 82 | 182 | 4.0 | 9.0 | 0.00 | 0.00 | 0.00 | 80 | 1013.0 |
| 20260906060504 | 82 | 183 | 4.0 | 9.0 | 0.00 | 0.00 | 0.00 | 80 | 1013.0 |
| 20260906060004 | 82 | 181 | 4.0 | 10.0 | 0.00 | 0.00 | 0.00 | 79 | 1013.0 |
| 20260906055504 | 82 | 180 | 5.0 | 10.0 | 0.00 | 0.00 | 0.00 | 79 | 1012.9 |
| 20260906055005 | 82 | 187 | 6.0 | 11.0 | 0.00 | 0.00 | 0.00 | 78 | 1013.0 |
| 20260906054504 | 82 | 188 | 6.0 | 11.0 | 0.00 | 0.00 | 0.00 | 77 | 1013.0 |
| 20260906054004 | 82 | 180 | 4.0 | 8.0 | 0.00 | 0.00 | 0.00 | 77 | 1012.8 |
| 20260906053505 | 82 | 182 | 3.0 | 6.0 | 0.00 | 0.00 | 0.00 | 76 | 1013.0 |
| 20260906053004 | 83 | 189 | 3.0 | 7.0 | 0.00 | 0.00 | 0.00 | 76 | 1012.9 |
| 20260906052504 | 83 | 184 | 4.0 | 9.0 | 0.00 | 0.00 | 0.00 | 75 | 1013.0 |
| 20260906052004 | 83 | 179 | 4.0 | 9.0 | 0.00 | 0.00 | 0.00 | 75 | 1013.0 |
| 20260906051504 | 83 | 177 | 4.0 | 6.0 | 0.00 | 0.00 | 0.00 | 75 | 1013.0 |
| 20260906051004 | 83 | 174 | 4.0 | 9.0 | 0.00 | 0.00 | 0.00 | 75 | 1013.1 |
| 20260906050504 | 84 | 169 | 3.0 | 9.0 | 0.00 | 0.00 | 0.00 | 74 | 1013.1 |
| 20260906050005 | 84 | 163 | 3.0 | 6.0 | 0.00 | 0.00 | 0.00 | 74 | 1013.1 |
| 20260906045505 | 84 | 165 | 4.0 | 9.0 | 0.00 | 0.00 | 0.00 | 74 | 1013.0 |
| 20260906045004 | 84 | 170 | 4.0 | 9.0 | 0.00 | 0.00 | 0.00 | 73 | 1013.0 |
| 20260906044504 | 84 | 170 | 5.0 | 10.0 | 0.00 | 0.00 | 0.00 | 72 | 1013.0 |
| 20260906044005 | 84 | 167 | 5.0 | 10.0 | 0.00 | 0.00 | 0.00 | 72 | 1013.0 |
| 20260906043505 | 84 | 173 | 5.0 | 9.0 | 0.00 | 0.00 | 0.00 | 72 | 1013.0 |
| 20260906043004 | 84 | 185 | 3.0 | 9.0 | 0.00 | 0.00 | 0.00 | 71 | 1013.0 |
| 20260906042504 | 85 | 176 | 3.0 | 6.0 | 0.00 | 0.00 | 0.00 | 71 | 1013.0 |
| 20260906042004 | 85 | 170 | 4.0 | 7.0 | 0.00 | 0.00 | 0.00 | 71 | 1012.9 |
| 20260906041504 | 85 | 169 | 4.0 | 11.0 | 0.00 | 0.00 | 0.00 | 70 | 1012.9 |
| 20260906041004 | 85 | 174 | 5.0 | 13.0 | 0.00 | 0.00 | 0.00 | 70 | 1013.0 |
| 20260906040505 | 85 | 177 | 5.0 | 13.0 | 0.00 | 0.00 | 0.00 | 70 | 1012.9 |
| 20260906040004 | 85 | 172 | 4.0 | 9.0 | 0.00 | 0.00 | 0.00 | 69 | 1012.9 |
| 20260906035504 | 86 | 168 | 4.0 | 9.0 | 0.00 | 0.00 | 0.00 | 68 | 1012.9 |
| 20260906035004 | 86 | 164 | 5.0 | 10.0 | 0.00 | 0.00 | 0.00 | 68 | 1012.8 |
| 20260906034504 | 86 | 164 | 5.0 | 13.0 | 0.00 | 0.00 | 0.00 | 68 | 1012.7 |
| 20260906034004 | 86 | 165 | 5.0 | 13.0 | 0.00 | 0.00 | 0.00 | 67 | 1012.5 |
| 20260906033505 | 86 | 160 | 5.0 | 11.0 | 0.00 | 0.00 | 0.00 | 67 | 1012.5 |
| 20260906033005 | 86 | 154 | 6.0 | 11.0 | 0.00 | 0.00 | 0.00 | 66 | 1012.5 |
| 20260906032504 | 86 | 153 | 6.0 | 11.0 | 0.00 | 0.00 | 0.00 | 66 | 1012.4 |
| 20260906032005 | 86 | 155 | 5.0 | 10.0 | 0.00 | 0.00 | 0.00 | 66 | 1012.4 |
| 20260906031504 | 87 | 159 | 6.0 | 13.0 | 0.00 | 0.00 | 0.00 | 65 | 1012.2 |
| 20260906031004 | 87 | 156 | 6.0 | 13.0 | 0.00 | 0.00 | 0.00 | 65 | 1012.1 |
| 20260906030505 | 87 | 156 | 6.0 | 13.0 | 0.00 | 0.00 | 0.00 | 65 | 1012.0 |
| 20260906030005 | 87 | 155 | 6.0 | 12.0 | 0.00 | 0.00 | 0.00 | 64 | 1011.9 |
| 20260906025504 | 87 | 154 | 5.0 | 12.0 | 0.00 | 0.00 | 0.00 | 64 | 1011.8 |
| 20260906025004 | 87 | 154 | 6.0 | 12.0 | 0.00 | 0.00 | 0.00 | 64 | 1011.6 |
| 20260906024504 | 88 | 153 | 7.0 | 14.0 | 0.00 | 0.00 | 0.00 | 63 | 1011.4 |
| 20260906024004 | 88 | 155 | 7.0 | 14.0 | 0.00 | 0.00 | 0.00 | 63 | 1011.2 |
| 20260906023525 | 88 | 155 | 7.0 | 14.0 | 0.00 | 0.00 | 0.00 | 63 | 1011.0 |
| 20260906023004 | 88 | 153 | 7.0 | 14.0 | 0.00 | 0.00 | 0.00 | 63 | 1010.9 |
| 20260906022525 | 88 | 155 | 7.0 | 11.0 | 0.00 | 0.00 | 0.00 | 62 | 1011.0 |
| 20260906022004 | 88 | 152 | 7.0 | 12.0 | 0.00 | 0.00 | 0.00 | 62 | 1010.8 |
| 20260906021505 | 88 | 144 | 8.0 | 12.0 | 0.00 | 0.00 | 0.00 | 61 | 1010.8 |
| 20260906021004 | 89 | 143 | 7.0 | 12.0 | 0.00 | 0.00 | 0.00 | 61 | 1010.7 |
| 20260906020504 | 89 | 143 | 7.0 | 12.0 | 0.00 | 0.00 | 0.00 | 60 | 1010.6 |
| 20260906020004 | 89 | 149 | 8.0 | 13.0 | 0.00 | 0.00 | 0.00 | 59 | 1010.5 |
| 20260906015504 | 90 | 151 | 8.0 | 13.0 | 0.00 | 0.00 | 0.00 | 59 | 1010.4 |
| 20260906015004 | 90 | 143 | 7.0 | 13.0 | 0.00 | 0.00 | 0.00 | 57 | 1010.5 |
| 20260906014504 | 90 | 141 | 7.0 | 13.0 | 0.00 | 0.00 | 0.00 | 56 | 1010.4 |
| 20260906014004 | 91 | 137 | 6.0 | 13.0 | 0.00 | 0.00 | 0.00 | 55 | 1010.4 |
| 20260906013504 | 91 | 129 | 6.0 | 11.0 | 0.00 | 0.00 | 0.00 | 54 | 1010.3 |
| 20260906013004 | 91 | 139 | 6.0 | 11.0 | 0.00 | 0.00 | 0.00 | 54 | 1010.2 |
| 20260906012505 | 92 | 140 | 5.0 | 9.0 | 0.00 | 0.00 | 0.00 | 52 | 1010.0 |
| 20260906012004 | 92 | 127 | 4.0 | 9.0 | 0.00 | 0.00 | 0.00 | 52 | 1010.0 |
| 20260906011504 | 92 | 130 | 3.0 | 8.0 | 0.00 | 0.00 | 0.00 | 51 | 1009.9 |
| 20260906011004 | 92 | 132 | 3.0 | 8.0 | 0.00 | 0.00 | 0.00 | 51 | 1009.8 |
| 20260906010505 | 92 | 134 | 4.0 | 8.0 | 0.00 | 0.00 | 0.00 | 51 | 1009.7 |
| 20260906010004 | 92 | 129 | 4.0 | 11.0 | 0.00 | 0.00 | 0.00 | 51 | 1009.7 |
| 20260906005504 | 92 | 125 | 4.0 | 11.0 | 0.00 | 0.00 | 0.00 | 51 | 1009.7 |
| 20260906005004 | 93 | 132 | 5.0 | 10.0 | 0.00 | 0.00 | 0.00 | 50 | 1009.6 |
| 20260906004504 | 93 | 137 | 5.0 | 10.0 | 0.00 | 0.00 | 0.00 | 50 | 1009.6 |
| 20260906004004 | 93 | 139 | 5.0 | 10.0 | 0.00 | 0.00 | 0.00 | 49 | 1009.5 |
| 20260906003504 | 94 | 136 | 6.0 | 15.0 | 0.00 | 0.00 | 0.00 | 49 | 1009.6 |
| 20260906003004 | 94 | 129 | 6.0 | 15.0 | 0.00 | 0.00 | 0.00 | 48 | 1009.5 |
| 20260906002504 | 95 | 114 | 5.0 | 11.0 | 0.00 | 0.00 | 0.00 | 46 | 1009.5 |
| 20260906002004 | 96 | 97 | 5.0 | 11.0 | 0.00 | 0.00 | 0.00 | 42 | 1009.5 |
| 20260906001504 | 96 | 97 | 5.0 | 10.0 | 0.00 | 0.00 | 0.00 | 41 | 1009.3 |
| 20260906001004 | 96 | 101 | 5.0 | 9.0 | 0.00 | 0.00 | 0.00 | 41 | 1009.3 |
| 20260906000504 | 97 | 102 | 5.0 | 12.0 | 0.00 | 0.00 | 0.00 | 40 | 1009.3 |
| 20260906000025 | 97 | 96 | 6.0 | 12.0 | 0.00 | 0.00 | 0.00 | 40 | 1009.3 |
| 20260905235505 | 98 | 88 | 5.0 | 11.0 | 0.00 | 0.00 | 0.00 | 39 | 1009.2 |
| 20260905235004 | 98 | 87 | 4.0 | 9.0 | 0.00 | 0.00 | 0.00 | 38 | 1009.2 |
| 20260905234504 | 98 | 81 | 4.0 | 9.0 | 0.00 | 0.00 | 0.00 | 37 | 1009.3 |
| 20260905234025 | 99 | 55 | 3.0 | 8.0 | 0.00 | 0.00 | 0.00 | 37 | 1009.2 |
| 20260905233504 | 99 | 42 | 2.0 | 6.0 | 0.00 | 0.00 | 0.00 | 37 | 1009.2 |
| 20260905233004 | 99 | 87 | 2.0 | 6.0 | 0.00 | 0.00 | 0.00 | 38 | 1009.2 |
| 20260905232504 | 99 | 121 | 1.0 | 3.0 | 0.00 | 0.00 | 0.00 | 38 | 1009.2 |
| 20260905232004 | 99 | 70 | 2.0 | 5.0 | 0.00 | 0.00 | 0.00 | 38 | 1009.2 |
| 20260905231504 | 99 | 86 | 2.0 | 6.0 | 0.00 | 0.00 | 0.00 | 38 | 1009.2 |
| 20260905231004 | 99 | 137 | 3.0 | 6.0 | 0.00 | 0.00 | 0.00 | 39 | 1009.2 |
| 20260905230505 | 98 | 182 | 3.0 | 9.0 | 0.00 | 0.00 | 0.00 | 39 | 1009.2 |
| 20260905230004 | 98 | 182 | 3.0 | 10.0 | 0.00 | 0.00 | 0.00 | 39 | 1009.1 |
| 20260905225504 | 99 | 143 | 3.0 | 10.0 | 0.00 | 0.00 | 0.00 | 38 | 1009.3 |
| 20260905225004 | 98 | 164 | 3.0 | 8.0 | 0.00 | 0.00 | 0.00 | 38 | 1009.2 |
| 20260905224505 | 98 | 186 | 5.0 | 11.0 | 0.00 | 0.00 | 0.00 | 38 | 1009.2 |
| 20260905224025 | 98 | 181 | 4.0 | 11.0 | 0.00 | 0.00 | 0.00 | 38 | 1009.3 |
| 20260905223525 | 99 | 155 | 3.0 | 9.0 | 0.00 | 0.00 | 0.00 | 39 | 1009.2 |
| 20260905223025 | 99 | 125 | 3.0 | 6.0 | 0.00 | 0.00 | 0.00 | 38 | 1009.3 |
| 20260905222504 | 98 | 113 | 4.0 | 9.0 | 0.00 | 0.00 | 0.00 | 37 | 1009.3 |
| 20260905222025 | 98 | 125 | 4.0 | 9.0 | 0.00 | 0.00 | 0.00 | 38 | 1009.3 |
| 20260905221504 | 98 | 152 | 3.0 | 7.0 | 0.00 | 0.00 | 0.00 | 40 | 1009.5 |
| 20260905221004 | 98 | 155 | 4.0 | 9.0 | 0.00 | 0.00 | 0.00 | 39 | 1009.6 |
| 20260905220504 | 99 | 141 | 4.0 | 9.0 | 0.00 | 0.00 | 0.00 | 39 | 1009.6 |
| 20260905220004 | 99 | 118 | 4.0 | 9.0 | 0.00 | 0.00 | 0.00 | 40 | 1009.6 |
| 20260905215504 | 99 | 118 | 5.0 | 12.0 | 0.00 | 0.00 | 0.00 | 40 | 1009.5 |
| 20260905215025 | 98 | 133 | 5.0 | 12.0 | 0.00 | 0.00 | 0.00 | 42 | 1009.5 |
| 20260905214504 | 98 | 143 | 5.0 | 11.0 | 0.00 | 0.00 | 0.00 | 41 | 1009.5 |
| 20260905214004 | 98 | 148 | 5.0 | 11.0 | 0.00 | 0.00 | 0.00 | 41 | 1009.6 |
| 20260905213504 | 97 | 130 | 3.0 | 7.0 | 0.00 | 0.00 | 0.00 | 43 | 1009.7 |
| 20260905213025 | 97 | 116 | 3.0 | 8.0 | 0.00 | 0.00 | 0.00 | 41 | 1009.6 |
| 20260905212504 | 97 | 139 | 3.0 | 8.0 | 0.00 | 0.00 | 0.00 | 41 | 1009.7 |
| 20260905212004 | 98 | 156 | 3.0 | 8.0 | 0.00 | 0.00 | 0.00 | 39 | 1009.7 |
| 20260905211505 | 99 | 169 | 4.0 | 12.0 | 0.00 | 0.00 | 0.00 | 38 | 1009.7 |
| 20260905211004 | 99 | 157 | 4.0 | 12.0 | 0.00 | 0.00 | 0.00 | 39 | 1009.7 |
| 20260905210504 | 99 | 176 | 4.0 | 10.0 | 0.00 | 0.00 | 0.00 | 39 | 1009.8 |
| 20260905210005 | 99 | 196 | 5.0 | 11.0 | 0.00 | 0.00 | 0.00 | 39 | 1009.8 |
| 20260905205504 | 99 | 203 | 6.0 | 11.0 | 0.00 | 0.00 | 0.00 | 39 | 1009.8 |
| 20260905205025 | 99 | 225 | 5.0 | 11.0 | 0.00 | 0.00 | 0.00 | 40 | 1009.9 |
| 20260905204504 | 98 | 212 | 4.0 | 9.0 | 0.00 | 0.00 | 0.00 | 40 | 1010.0 |
| 20260905204004 | 99 | 235 | 5.0 | 13.0 | 0.00 | 0.00 | 0.00 | 40 | 1010.1 |
| 20260905203504 | 99 | 244 | 5.0 | 13.0 | 0.00 | 0.00 | 0.00 | 39 | 1010.3 |
| 20260905203004 | 99 | 228 | 3.0 | 7.0 | 0.00 | 0.00 | 0.00 | 39 | 1010.4 |
| 20260905202504 | 98 | 179 | 3.0 | 8.0 | 0.00 | 0.00 | 0.00 | 42 | 1010.7 |
| 20260905202004 | 98 | 191 | 3.0 | 8.0 | 0.00 | 0.00 | 0.00 | 43 | 1010.8 |
| 20260905201504 | 99 | 226 | 4.0 | 10.0 | 0.00 | 0.00 | 0.00 | 41 | 1010.9 |
| 20260905201025 | 97 | 215 | 5.0 | 10.0 | 0.00 | 0.00 | 0.00 | 44 | 1010.8 |
| 20260905200504 | 97 | 208 | 4.0 | 10.0 | 0.00 | 0.00 | 0.00 | 44 | 1010.9 |
| 20260905200004 | 96 | 199 | 2.0 | 7.0 | 0.00 | 0.00 | 0.00 | 46 | 1011.0 |
| 20260905195504 | 96 | 115 | 2.0 | 8.0 | 0.00 | 0.00 | 0.00 | 48 | 1011.2 |
| 20260905195004 | 96 | 74 | 2.0 | 8.0 | 0.00 | 0.00 | 0.00 | 47 | 1011.3 |
| 20260905194504 | 96 | 81 | 3.0 | 8.0 | 0.00 | 0.00 | 0.00 | 48 | 1011.4 |
| 20260905194004 | 96 | 98 | 3.0 | 8.0 | 0.00 | 0.00 | 0.00 | 48 | 1011.6 |
| 20260905193525 | 96 | 103 | 2.0 | 7.0 | 0.00 | 0.00 | 0.00 | 48 | 1011.6 |
| 20260905193025 | 96 | 143 | 2.0 | 4.0 | 0.00 | 0.00 | 0.00 | 49 | 1011.8 |
| 20260905192504 | 95 | 199 | 2.0 | 4.0 | 0.00 | 0.00 | 0.00 | 49 | 1011.8 |
| 20260905192004 | 94 | 14 | 1.0 | 3.0 | 0.00 | 0.00 | 0.00 | 50 | 1011.9 |
| 20260905191525 | 93 | 74 | 2.0 | 7.0 | 0.00 | 0.00 | 0.00 | 54 | 1011.9 |
| 20260905191004 | 93 | 145 | 2.0 | 7.0 | 0.00 | 0.00 | 0.00 | 53 | 1012.1 |
| 20260905190504 | 94 | 227 | 2.0 | 6.0 | 0.00 | 0.00 | 0.00 | 52 | 1012.2 |
| 20260905190004 | 94 | 279 | 2.0 | 6.0 | 0.00 | 0.00 | 0.00 | 52 | 1012.3 |
| 20260905185505 | 93 | 347 | 3.0 | 7.0 | 0.00 | 0.00 | 0.00 | 54 | 1012.6 |
| 20260905185004 | 92 | 32 | 3.0 | 7.0 | 0.00 | 0.00 | 0.00 | 55 | 1012.8 |
| 20260905184504 | 92 | 358 | 2.0 | 5.0 | 0.00 | 0.00 | 0.00 | 57 | 1012.8 |
| 20260905184004 | 91 | 278 | 2.0 | 7.0 | 0.00 | 0.00 | 0.00 | 58 | 1012.9 |
| 20260905183504 | 91 | 270 | 2.0 | 7.0 | 0.00 | 0.00 | 0.00 | 57 | 1012.9 |
| 20260905183026 | 91 | 96 | 1.0 | 4.0 | 0.00 | 0.00 | 0.00 | 58 | 1013.0 |
| 20260905182504 | 92 | 64 | 3.0 | 10.0 | 0.00 | 0.00 | 0.00 | 57 | 1013.0 |
| 20260905182004 | 92 | 67 | 3.0 | 10.0 | 0.00 | 0.00 | 0.00 | 56 | 1013.1 |
| 20260905181504 | 93 | 104 | 2.0 | 6.0 | 0.00 | 0.00 | 0.00 | 56 | 1013.3 |
| 20260905181025 | 94 | 92 | 4.0 | 9.0 | 0.00 | 0.00 | 0.00 | 54 | 1013.3 |
| 20260905180504 | 94 | 95 | 5.0 | 10.0 | 0.00 | 0.00 | 0.00 | 54 | 1013.4 |
| 20260905180005 | 94 | 124 | 4.0 | 10.0 | 0.00 | 0.00 | 0.00 | 55 | 1013.4 |
| 20260905175504 | 93 | 145 | 3.0 | 7.0 | 0.00 | 0.00 | 0.00 | 55 | 1013.4 |
| 20260905175025 | 92 | 148 | 2.0 | 7.0 | 0.00 | 0.00 | 0.00 | 58 | 1013.6 |
| 20260905174504 | 91 | 139 | 1.0 | 3.0 | 0.00 | 0.00 | 0.00 | 59 | 1013.6 |
| 20260905174004 | 90 | 136 | 2.0 | 5.0 | 0.00 | 0.00 | 0.00 | 60 | 1013.6 |
| 20260905173504 | 90 | 149 | 3.0 | 6.0 | 0.00 | 0.00 | 0.00 | 60 | 1013.8 |
| 20260905173004 | 90 | 138 | 3.0 | 9.0 | 0.00 | 0.00 | 0.00 | 61 | 1013.8 |
| 20260905172504 | 90 | 149 | 3.0 | 9.0 | 0.00 | 0.00 | 0.00 | 61 | 1014.0 |
| 20260905172025 | 90 | 188 | 2.0 | 7.0 | 0.00 | 0.00 | 0.00 | 62 | 1014.0 |
| 20260905171504 | 89 | 179 | 3.0 | 8.0 | 0.00 | 0.00 | 0.00 | 63 | 1014.2 |
| 20260905171004 | 89 | 165 | 4.0 | 8.0 | 0.00 | 0.00 | 0.00 | 63 | 1014.2 |
| 20260905170525 | 89 | 155 | 3.0 | 8.0 | 0.00 | 0.00 | 0.00 | 63 | 1014.1 |
| 20260905170004 | 89 | 153 | 4.0 | 8.0 | 0.00 | 0.00 | 0.00 | 63 | 1014.3 |
| 20260905165504 | 89 | 158 | 4.0 | 9.0 | 0.00 | 0.00 | 0.00 | 63 | 1014.2 |
| 20260905165004 | 88 | 168 | 4.0 | 9.0 | 0.00 | 0.00 | 0.00 | 67 | 1014.3 |
| 20260905164504 | 88 | 184 | 5.0 | 14.0 | 0.00 | 0.00 | 0.00 | 67 | 1014.2 |
| 20260905164005 | 88 | 196 | 5.0 | 14.0 | 0.00 | 0.00 | 0.00 | 67 | 1014.2 |
| 20260905163525 | 88 | 182 | 4.0 | 8.0 | 0.00 | 0.00 | 0.00 | 69 | 1014.2 |
| 20260905163004 | 88 | 171 | 4.0 | 7.0 | 0.00 | 0.00 | 0.00 | 69 | 1014.1 |
| 20260905162504 | 88 | 175 | 4.0 | 8.0 | 0.00 | 0.00 | 0.00 | 69 | 1014.3 |
| 20260905162004 | 88 | 149 | 3.0 | 8.0 | 0.00 | 0.00 | 0.00 | 69 | 1014.3 |
| 20260905161504 | 87 | 132 | 3.0 | 7.0 | 0.00 | 0.00 | 0.00 | 70 | 1014.3 |
| 20260905161004 | 87 | 157 | 3.0 | 7.0 | 0.00 | 0.00 | 0.00 | 70 | 1014.4 |
| 20260905160525 | 87 | 187 | 3.0 | 8.0 | 0.00 | 0.00 | 0.00 | 70 | 1014.4 |
| 20260905160004 | 87 | 178 | 4.0 | 8.0 | 0.00 | 0.00 | 0.00 | 70 | 1014.5 |
| 20260905155504 | 87 | 182 | 5.0 | 9.0 | 0.00 | 0.00 | 0.00 | 71 | 1014.5 |
| 20260905155025 | 87 | 201 | 4.0 | 9.0 | 0.00 | 0.00 | 0.00 | 71 | 1014.5 |
| 20260905154504 | 87 | 185 | 3.0 | 7.0 | 0.00 | 0.00 | 0.00 | 72 | 1014.3 |
| 20260905154026 | 87 | 161 | 3.0 | 7.0 | 0.00 | 0.00 | 0.00 | 73 | 1014.3 |
| 20260905153504 | 86 | 159 | 3.0 | 7.0 | 0.00 | 0.00 | 0.00 | 73 | 1014.3 |
| 20260905153004 | 86 | 175 | 4.0 | 8.0 | 0.00 | 0.00 | 0.00 | 73 | 1014.3 |
| 20260905152504 | 86 | 187 | 4.0 | 8.0 | 0.00 | 0.00 | 0.00 | 74 | 1014.2 |
| 20260905152025 | 86 | 187 | 5.0 | 11.0 | 0.00 | 0.00 | 0.00 | 74 | 1014.2 |
| 20260905151504 | 86 | 185 | 5.0 | 11.0 | 0.00 | 0.00 | 0.00 | 73 | 1014.2 |
| 20260905151025 | 86 | 187 | 4.0 | 9.0 | 0.00 | 0.00 | 0.00 | 73 | 1014.2 |
| 20260905150504 | 86 | 199 | 4.0 | 8.0 | 0.00 | 0.00 | 0.00 | 74 | 1014.1 |
| 20260905150005 | 86 | 193 | 5.0 | 10.0 | 0.00 | 0.00 | 0.00 | 75 | 1014.1 |
| 20260905145504 | 86 | 190 | 4.0 | 10.0 | 0.00 | 0.00 | 0.00 | 74 | 1014.2 |
| 20260905145004 | 86 | 186 | 4.0 | 10.0 | 0.00 | 0.00 | 0.00 | 75 | 1014.1 |
| 20260905144503 | 85 | 173 | 4.0 | 9.0 | 0.00 | 0.00 | 0.00 | 76 | 1014.1 |
| 20260905144004 | 85 | 179 | 5.0 | 11.0 | 0.00 | 0.00 | 0.00 | 76 | 1014.1 |
| 20260905143504 | 85 | 202 | 3.0 | 11.0 | 0.00 | 0.00 | 0.00 | 76 | 1014.1 |
| 20260905143003 | 85 | 236 | 3.0 | 7.0 | 0.00 | 0.00 | 0.00 | 78 | 1014.1 |
| 20260905142525 | 84 | 222 | 4.0 | 7.0 | 0.00 | 0.00 | 0.00 | 78 | 1014.0 |
| 20260905142004 | 84 | 206 | 3.0 | 7.0 | 0.00 | 0.00 | 0.00 | 77 | 1014.1 |
| 20260905141526 | 84 | 178 | 2.0 | 4.0 | 0.00 | 0.00 | 0.00 | 80 | 1014.1 |
| 20260905141004 | 84 | 178 | 2.0 | 5.0 | 0.00 | 0.00 | 0.00 | 81 | 1014.1 |
| 20260905140504 | 84 | 171 | 2.0 | 6.0 | 0.00 | 0.00 | 0.00 | 82 | 1014.1 |
| 20260905140004 | 84 | 153 | 2.0 | 6.0 | 0.00 | 0.00 | 0.00 | 83 | 1014.0 |
| 20260905135525 | 83 | 151 | 2.0 | 6.0 | 0.00 | 0.00 | 0.00 | 83 | 1014.0 |
| 20260905135004 | 83 | 152 | 2.0 | 5.0 | 0.00 | 0.00 | 0.00 | 84 | 1013.9 |
| 20260905134504 | 82 | 154 | 2.0 | 5.0 | 0.00 | 0.00 | 0.00 | 85 | 1013.7 |
| 20260905134004 | 82 | 146 | 1.0 | 5.0 | 0.00 | 0.00 | 0.00 | 85 | 1013.7 |
| 20260905133504 | 82 | 147 | 1.0 | 4.0 | 0.00 | 0.00 | 0.00 | 86 | 1013.6 |
| 20260905133025 | 82 | 152 | 1.0 | 4.0 | 0.00 | 0.00 | 0.00 | 87 | 1013.6 |
| 20260905132504 | 81 | 98 | 1.0 | 4.0 | 0.00 | 0.00 | 0.00 | 88 | 1013.6 |